Hugo, OK

10:44 PM CDT on August 30, 2016 (GMT -0500)
Stamper Municipal

Weather History for KHHW - February, 2014

Change the Weather History Date:

Wednesday, February 12, 2014

  Actual Average Record
Temperature  
Mean Temperature 43 °F -  
Max Temperature 54 °F 56 °F 54 °F (2014)
Min Temperature 32 °F 35 °F 32 °F (2014)
Degree Days  
Heating Degree Days 22    
Moisture  
Dew Point 24 °F    
Average Humidity 52    
Maximum Humidity 78    
Minimum Humidity 25    
Precipitation  
Precipitation 0.00 in - - ()
Sea Level Pressure  
Sea Level Pressure 30.10 in    
Wind  
Wind Speed 3 mph (NW)    
Max Wind Speed 12 mph    
Max Gust Speed -    
Visibility 10 miles    
Events      
Averages and records for this station are not official NWS values.
T = Trace of Precipitation, MM = Missing Value Source: NWS Daily Summary

Daily Weather History Graph

Daily Weather History Graph

Search for Another Location

Airport or City:

Trip Planner

Search our weather history database for the weather conditions in past years. The results will help you decide how hot, cold, wet, or windy it might be!

Date:

Astronomy

Feb. 12, 2014 Rise Set
Actual Time 7:09 AM CST 6:03 PM CST
Civil Twilight 6:44 AM CST 6:29 PM CST
Nautical Twilight 6:14 AM CST 6:58 PM CST
Astronomical Twilight 5:45 AM CST 7:27 PM CST
Moon 4:19 PM CST (2/12) 5:24 AM CST (2/12)
Length of Visible Light 11h 44m
Length of Day
10h 53m
Waxing Gibbous, 95% of the Moon is Illuminated
Feb 12
Waxing Gibbous
Feb 14
Full
Feb 22
Last Quarter
Mar 1
New
Mar 8
First Quarter

Hourly Weather History & Observations

Time (CST) Temp. Windchill Dew Point Humidity Pressure Visibility Wind Dir Wind Speed Gust Speed Precip Events Conditions
12:15 AM 37.6 °F - 26.6 °F 65% 30.21 in 10.0 mi Calm Calm - N/A   Overcast
12:35 AM 37.8 °F - 27.1 °F 66% 30.21 in 10.0 mi Calm Calm - N/A   Overcast
12:55 AM 37.6 °F - 28.0 °F 68% 30.20 in 10.0 mi Calm Calm - N/A   Overcast
1:15 AM 37.6 °F - 27.3 °F 66% 30.19 in 10.0 mi Calm Calm - N/A   Overcast
1:35 AM 37.6 °F 35.1 °F 26.6 °F 65% 30.18 in 10.0 mi NNE 3.5 mph - N/A   Overcast
1:55 AM 37.6 °F 35.1 °F 26.6 °F 65% 30.16 in 10.0 mi ENE 3.5 mph - N/A   Overcast
2:15 AM 37.4 °F 34.9 °F 26.6 °F 65% 30.16 in 10.0 mi NE 3.5 mph - N/A   Overcast
2:35 AM 37.2 °F - 25.9 °F 64% 30.15 in 10.0 mi Calm Calm - N/A   Overcast
2:55 AM 36.7 °F - 24.8 °F 62% 30.13 in 10.0 mi Calm Calm - N/A   Overcast
3:15 AM 35.8 °F - 24.4 °F 63% 30.12 in 10.0 mi Calm Calm - N/A   Mostly Cloudy
3:35 AM 33.1 °F 30.0 °F 27.0 °F 78% 30.14 in 10.0 mi NNW 3.5 mph - N/A   Overcast
3:55 AM 33.6 °F 29.4 °F 26.8 °F 76% 30.15 in 10.0 mi NW 4.6 mph - N/A   Overcast
4:15 AM 34.7 °F - 24.6 °F 67% 30.15 in 10.0 mi Calm Calm - N/A   Overcast
4:35 AM 33.8 °F 29.6 °F 25.5 °F 72% 30.16 in 10.0 mi NW 4.6 mph - N/A   Overcast
4:55 AM 34.3 °F 30.2 °F 25.0 °F 69% 30.16 in 10.0 mi NW 4.6 mph - N/A   Overcast
5:15 AM 34.7 °F 30.6 °F 25.7 °F 70% 30.16 in 10.0 mi NNW 4.6 mph - N/A   Overcast
5:35 AM 34.0 °F 31.0 °F 25.3 °F 71% 30.15 in 10.0 mi NNW 3.5 mph - N/A   Overcast
5:55 AM 34.0 °F - 23.9 °F 67% 30.14 in 10.0 mi Calm Calm - N/A   Overcast
6:15 AM 33.4 °F - 23.7 °F 68% 30.14 in 10.0 mi Calm Calm - N/A   Mostly Cloudy
6:35 AM 33.1 °F 28.7 °F 23.9 °F 69% 30.15 in 10.0 mi NNW 4.6 mph - N/A   Overcast
6:55 AM 32.7 °F 28.3 °F 24.3 °F 71% 30.17 in 10.0 mi NW 4.6 mph - N/A   Overcast
7:15 AM 32.9 °F - 24.8 °F 72% 30.17 in 10.0 mi Calm Calm - N/A   Overcast
7:35 AM 32.2 °F - 24.8 °F 74% 30.17 in 10.0 mi Calm Calm - N/A   Overcast
7:55 AM 32.2 °F 27.7 °F 25.5 °F 76% 30.18 in 10.0 mi NW 4.6 mph - N/A   Overcast
8:15 AM 32.4 °F 27.9 °F 24.4 °F 73% 30.17 in 10.0 mi NW 4.6 mph - N/A   Mostly Cloudy
8:35 AM 32.5 °F 29.3 °F 23.2 °F 68% 30.18 in 10.0 mi NW 3.5 mph - N/A   Scattered Clouds
8:55 AM 36.7 °F 31.2 °F 20.1 °F 51% 30.18 in 10.0 mi North 6.9 mph - N/A   Mostly Cloudy
9:15 AM 37.2 °F 33.6 °F 17.2 °F 44% 30.18 in 10.0 mi NNW 4.6 mph - N/A   Mostly Cloudy
9:35 AM 39.9 °F 35.8 °F 15.4 °F 37% 30.18 in 10.0 mi NNW 5.8 mph - N/A   Clear
9:55 AM 41.4 °F 39.4 °F 13.1 °F 32% 30.18 in 10.0 mi North 3.5 mph - N/A   Clear
10:15 AM 43.0 °F 40.3 °F 10.0 °F 26% 30.18 in 10.0 mi North 4.6 mph - N/A   Clear
10:35 AM 44.2 °F 39.7 °F 11.8 °F 27% 30.18 in 10.0 mi NNW 8.1 mph - N/A   Clear
10:55 AM 45.7 °F 42.0 °F 11.8 °F 25% 30.18 in 10.0 mi North 6.9 mph - N/A   Clear
11:15 AM 47.1 °F - 13.5 °F 26% 30.17 in 10.0 mi NNW 9.2 mph - N/A   Clear
11:35 AM 48.2 °F - 14.9 °F 26% 30.16 in 10.0 mi North 9.2 mph - N/A   Clear
11:55 AM 48.4 °F - 14.2 °F 25% 30.15 in 10.0 mi North 5.8 mph - N/A   Clear
12:15 PM 49.5 °F - 18.9 °F 30% 30.13 in 10.0 mi NW 4.6 mph - N/A   Clear
12:35 PM 49.6 °F - 16.5 °F 27% 30.12 in 10.0 mi North 6.9 mph - N/A   Clear
12:55 PM 50.4 °F - 18.1 °F 28% 30.10 in 10.0 mi NW 5.8 mph - N/A   Clear
1:15 PM 52.0 °F - 19.6 °F 28% 30.08 in 10.0 mi NNW 11.5 mph - N/A   Clear
1:35 PM 52.0 °F - 19.9 °F 28% 30.07 in 10.0 mi NNW 6.9 mph - N/A   Clear
1:55 PM 52.7 °F - 21.6 °F 30% 30.06 in 10.0 mi WNW 8.1 mph - N/A   Clear
2:15 PM 53.2 °F - 22.8 °F 31% 30.05 in 10.0 mi NNW 9.2 mph - N/A   Clear
2:35 PM 54.0 °F - 23.7 °F 31% 30.04 in 10.0 mi North 9.2 mph - N/A   Clear
2:55 PM 54.1 °F - 24.4 °F 32% 30.03 in 10.0 mi NNW 11.5 mph - N/A   Clear
3:15 PM 54.1 °F - 24.1 °F 31% 30.02 in 10.0 mi NNW 3.5 mph - N/A   Clear
3:35 PM 54.5 °F - 24.4 °F 31% 30.02 in 10.0 mi WNW 6.9 mph - N/A   Clear
3:55 PM 54.5 °F - 23.7 °F 30% 30.01 in 10.0 mi NNW 4.6 mph - N/A   Clear
4:15 PM 54.5 °F - 24.4 °F 31% 30.01 in 10.0 mi WNW 5.8 mph - N/A   Clear
4:35 PM 54.0 °F - 24.8 °F 32% 30.02 in 10.0 mi WNW 10.4 mph - N/A   Clear
4:55 PM 53.2 °F - 25.3 °F 34% 30.02 in 10.0 mi WNW 9.2 mph - N/A   Clear
5:15 PM 52.7 °F - 27.1 °F 37% 30.03 in 10.0 mi WNW 6.9 mph - N/A   Clear
5:35 PM 51.8 °F - 27.0 °F 38% 30.03 in 10.0 mi NW 9.2 mph - N/A   Clear
5:55 PM 50.0 °F - 27.9 °F 42% 30.03 in 10.0 mi NW 5.8 mph - N/A   Clear
6:15 PM 48.0 °F - 28.2 °F 46% 30.04 in 10.0 mi NW 3.5 mph - N/A   Clear
6:35 PM 48.2 °F - 27.7 °F 45% 30.04 in 10.0 mi NW 3.5 mph - N/A   Clear
6:55 PM 46.6 °F - 28.0 °F 49% 30.04 in 10.0 mi WNW 4.6 mph - N/A   Clear
7:15 PM 46.4 °F 45.2 °F 28.4 °F 50% 30.04 in 10.0 mi NW 3.5 mph - N/A   Clear
7:35 PM 44.6 °F - 28.4 °F 53% 30.04 in 10.0 mi Calm Calm - N/A   Clear
7:55 PM 45.1 °F 42.8 °F 28.4 °F 52% 30.04 in 10.0 mi West 4.6 mph - N/A   Clear
8:15 PM 45.7 °F - 28.4 °F 51% 30.04 in 10.0 mi Calm Calm - N/A   Clear
8:35 PM 44.8 °F 42.4 °F 28.2 °F 52% 30.05 in 10.0 mi West 4.6 mph - N/A   Clear
8:55 PM 42.8 °F - 28.8 °F 58% 30.04 in 10.0 mi Calm Calm - N/A   Clear
9:15 PM 42.1 °F 40.2 °F 28.6 °F 59% 30.04 in 10.0 mi SW 3.5 mph - N/A   Clear
9:35 PM 41.0 °F 39.0 °F 28.6 °F 61% 30.03 in 10.0 mi SW 3.5 mph - N/A   Clear
9:55 PM 40.6 °F - 28.8 °F 63% 30.03 in 10.0 mi Calm Calm - N/A   Clear
10:15 PM 42.3 °F 40.5 °F 28.0 °F 57% 30.03 in 10.0 mi SSW 3.5 mph - N/A   Clear
10:35 PM 41.0 °F 39.0 °F 28.2 °F 60% 30.02 in 10.0 mi SW 3.5 mph - N/A   Clear
10:55 PM 40.1 °F 36.1 °F 30.2 °F 68% 30.02 in 10.0 mi NW 5.8 mph - N/A   Clear
11:15 PM 39.6 °F 35.4 °F 30.2 °F 69% 30.03 in 10.0 mi WNW 5.8 mph - N/A   Clear
11:35 PM 40.1 °F 38.0 °F 30.4 °F 68% 30.03 in 10.0 mi NW 3.5 mph - N/A   Clear
11:55 PM 39.9 °F 37.8 °F 30.2 °F 68% 30.01 in 10.0 mi NNW 3.5 mph - N/A   Clear